{"data":{"norad_id":55829,"epoch":"2026-09-19T23:31:16.123872Z","epoch_age_seconds":63050,"freshness":"FRESH","line1":"1 55829U 23029AK  26262.98004773 -.00000125  00000+0 -37254-3 0  9994","line2":"2 55829  87.8887 270.8251 0002269  88.1035 272.0355 13.14503747171880","mean_motion":13.14503747,"eccentricity":0.0002269,"inclination_deg":87.8887,"raan_deg":270.8251,"arg_perigee_deg":88.1035,"mean_anomaly_deg":272.0355,"bstar":-0.00037254,"rev_number":17188,"period_min":109.54704414395,"perigee_km":1204.0659199245,"apogee_km":1207.5075045051,"semimajor_km":7583.9237122148,"source":"CELESTRAK","updated_at":"2026-09-20T09:00:44.784473Z"}}